timestamp,surface_pressure_avg,surface_temp_avg,battery_voltage,lat,long
2023-11-25 00:09:00+00:00,279.7214,7.3,12.09,47.84626,-54.09684
2023-11-25 00:19:00+00:00,268.7531,7.3,12.09,47.84626,-54.09684
2023-11-25 00:29:00+00:00,265.6831,7.3,12.09,47.84626,-54.09684
2023-11-25 00:39:00+00:00,255.5564,7.3,12.09,47.84626,-54.09684
2023-11-25 00:49:00+00:00,245.4314,7.3,12.09,47.84626,-54.09684
2023-11-25 00:59:00+00:00,240.9198,7.3,12.09,47.84626,-54.09684
2023-11-25 01:09:00+00:00,237.4381,7.3,12.09,47.84626,-54.09684
2023-11-25 01:19:00+00:00,227.5481,7.3,12.01,47.84626,-54.09684
2023-11-25 01:29:00+00:00,219.9514,7.3,12.01,47.84626,-54.09684
2023-11-25 01:39:00+00:00,216.9565,7.31,12.01,47.84626,-54.09684
2023-11-25 01:49:00+00:00,211.8665,7.33,12.01,47.84626,-54.09684
2023-11-25 01:59:00+00:00,204.8165,7.34,12.01,47.84626,-54.09684
2023-11-25 02:09:00+00:00,202.6398,7.36,12.01,47.84626,-54.09684
2023-11-25 02:19:00+00:00,201.9164,7.37,12.01,47.84626,-54.09684
2023-11-25 02:29:00+00:00,200.4048,7.37,12.01,47.84626,-54.09684
2023-11-25 02:39:00+00:00,198.9481,7.37,12.01,47.84626,-54.09684
2023-11-25 02:49:00+00:00,199.1915,7.37,12.01,47.84626,-54.09684
2023-11-25 02:59:00+00:00,201.0331,7.37,12.01,47.84626,-54.09684
2023-11-25 03:09:00+00:00,203.4181,7.37,12.01,47.84626,-54.09684
2023-11-25 03:19:00+00:00,204.1231,7.37,12.01,47.84626,-54.09684
2023-11-25 03:29:00+00:00,204.2081,7.3,12.01,47.84626,-54.09684
2023-11-25 03:39:00+00:00,206.4331,7.3,12.01,47.84626,-54.09684
2023-11-25 03:49:00+00:00,208.1348,7.3,12.01,47.84626,-54.09684
2023-11-25 03:59:00+00:00,206.7631,7.3,12.01,47.84626,-54.09684
2023-11-25 04:09:00+00:00,208.4331,7.3,12.01,47.84626,-54.09684
2023-11-25 04:19:00+00:00,213.9281,7.3,12.01,47.84626,-54.09684
2023-11-25 04:29:00+00:00,217.1498,7.3,12.01,47.84626,-54.09684
2023-11-25 04:39:00+00:00,219.6498,7.3,12.01,47.84626,-54.09684
2023-11-25 04:49:00+00:00,223.5831,7.3,12.01,47.84626,-54.09684
2023-11-25 04:59:00+00:00,228.8898,7.3,12.01,47.84626,-54.09684
2023-11-25 05:09:00+00:00,230.1431,7.3,12.01,47.84626,-54.09684
2023-11-25 05:19:00+00:00,232.2481,7.3,12.01,47.84626,-54.09684
2023-11-25 05:29:00+00:00,240.4597,7.3,12.01,47.84626,-54.09684
2023-11-25 05:39:00+00:00,248.9481,7.3,12.01,47.84626,-54.09684
2023-11-25 05:49:00+00:00,251.3264,7.3,12.01,47.84626,-54.09684
2023-11-25 05:59:00+00:00,254.4365,7.3,12.01,47.84626,-54.09684
2023-11-25 06:09:00+00:00,264.5381,7.3,12.01,47.84626,-54.09684
2023-11-25 06:19:00+00:00,272.1897,7.3,12.01,47.84626,-54.09684
2023-11-25 06:29:00+00:00,275.6848,7.29,12.01,47.84626,-54.09684
2023-11-25 06:39:00+00:00,283.2764,7.25,12.01,47.84626,-54.09684
2023-11-25 06:49:00+00:00,291.9397,7.2,12.01,47.84626,-54.09684
2023-11-25 06:59:00+00:00,294.293,7.2,12.01,47.84626,-54.09684
2023-11-25 07:09:00+00:00,301.688,7.1,12.01,47.84626,-54.09684
2023-11-25 07:19:00+00:00,313.1263,7.0,12.01,47.84626,-54.09684
2023-11-25 07:29:00+00:00,321.1497,6.96,12.01,47.84626,-54.09684
2023-11-25 07:39:00+00:00,325.8647,6.9,12.01,47.84626,-54.09684
2023-11-25 07:49:00+00:00,336.5529,6.9,12.01,47.84626,-54.09684
2023-11-25 07:59:00+00:00,345.4129,6.88,12.01,47.84626,-54.09684
2023-11-25 08:09:00+00:00,345.7413,6.87,12.01,47.84626,-54.09684
2023-11-25 08:19:00+00:00,352.4696,6.89,12.01,47.84626,-54.09684
2023-11-25 08:29:00+00:00,364.6996,6.87,12.01,47.84626,-54.09684
2023-11-25 08:39:00+00:00,373.3663,6.8,12.01,47.84626,-54.09684
2023-11-25 08:49:00+00:00,370.7979,6.8,12.01,47.84626,-54.09684
2023-11-25 08:59:00+00:00,370.0679,6.8,12.01,47.84626,-54.09684
2023-11-25 09:09:00+00:00,379.0379,6.7,12.01,47.84626,-54.09684
2023-11-25 09:19:00+00:00,381.3162,6.6,12.01,47.84626,-54.09684
2023-11-25 09:29:00+00:00,380.7963,6.6,12.01,47.84626,-54.09684
2023-11-25 09:39:00+00:00,387.413,6.59,12.01,47.84626,-54.09684
2023-11-25 09:49:00+00:00,388.4563,6.6,12.01,47.84626,-54.09684
2023-11-25 09:59:00+00:00,387.2762,6.7,12.01,47.84626,-54.09684
2023-11-25 10:09:00+00:00,384.1179,6.69,12.01,47.84626,-54.09684
2023-11-25 10:19:00+00:00,385.1596,6.7,12.01,47.84626,-54.09684
2023-11-25 10:29:00+00:00,390.1745,6.7,12.01,47.84626,-54.09684
2023-11-25 10:39:00+00:00,387.4846,6.72,12.01,47.84626,-54.09684
2023-11-25 10:49:00+00:00,380.7379,6.8,12.01,47.84626,-54.09684
2023-11-25 10:59:00+00:00,382.3945,6.8,12.01,47.84626,-54.09684
2023-11-25 11:09:00+00:00,379.7746,6.88,12.01,47.84626,-54.09684
2023-11-25 11:19:00+00:00,371.6697,6.9,12.01,47.84626,-54.09684
2023-11-25 11:29:00+00:00,366.9547,6.9,12.01,47.84626,-54.09684
2023-11-25 11:39:00+00:00,367.9429,6.9,12.01,47.84626,-54.09684
2023-11-25 11:49:00+00:00,358.798,6.7,12.01,47.84626,-54.09684
2023-11-25 11:59:00+00:00,346.9613,6.5,12.01,47.84626,-54.09684
2023-11-25 12:09:00+00:00,341.9213,6.47,12.01,47.84626,-54.09684
2023-11-25 12:19:00+00:00,332.593,6.5,12.33,47.84626,-54.09684
2023-11-25 12:29:00+00:00,320.0313,6.59,12.33,47.84626,-54.09684
2023-11-25 12:39:00+00:00,313.0147,6.6,12.33,47.84626,-54.09684
2023-11-25 12:49:00+00:00,303.8647,6.76,12.33,47.84626,-54.09684
2023-11-25 12:59:00+00:00,292.553,6.8,12.33,47.84626,-54.09684
2023-11-25 13:09:00+00:00,281.6847,6.8,12.33,47.84626,-54.09684
2023-11-25 13:19:00+00:00,276.1348,6.8,12.17,47.84626,-54.09684
2023-11-25 13:29:00+00:00,269.0114,6.8,12.17,47.84626,-54.09684
2023-11-25 13:39:00+00:00,258.7348,6.8,12.17,47.84626,-54.09684
2023-11-25 13:49:00+00:00,252.0464,6.88,12.17,47.84626,-54.09684
2023-11-25 13:59:00+00:00,245.2598,6.9,12.17,47.84626,-54.09684
2023-11-25 14:09:00+00:00,238.9014,6.9,12.17,47.84626,-54.09684
2023-11-25 14:19:00+00:00,230.4314,6.9,12.49,47.84626,-54.09684
2023-11-25 14:29:00+00:00,226.1148,6.97,12.49,47.84626,-54.09684
2023-11-25 14:39:00+00:00,221.9898,6.99,12.49,47.84626,-54.09684
2023-11-25 14:49:00+00:00,218.4248,7.0,12.49,47.84626,-54.09684
2023-11-25 14:59:00+00:00,213.6398,7.0,12.49,47.84626,-54.09684
2023-11-25 15:09:00+00:00,207.5465,7.0,12.49,47.84626,-54.09684
2023-11-25 15:19:00+00:00,203.1314,7.0,12.49,47.84626,-54.09684
2023-11-25 15:29:00+00:00,199.9882,7.0,12.49,47.84626,-54.09684
2023-11-25 15:39:00+00:00,195.9881,7.0,12.49,47.84626,-54.09684
2023-11-25 15:49:00+00:00,196.7915,7.03,12.49,47.84626,-54.09684
2023-11-25 15:59:00+00:00,197.3731,7.07,12.49,47.84626,-54.09684
2023-11-25 16:09:00+00:00,195.2714,7.1,12.49,47.84626,-54.09684
2023-11-25 16:19:00+00:00,198.9698,7.1,12.33,47.84626,-54.09684
2023-11-25 16:29:00+00:00,203.1031,7.14,12.33,47.84626,-54.09684
2023-11-25 16:39:00+00:00,206.4147,7.17,12.33,47.84626,-54.09684
2023-11-25 16:49:00+00:00,208.1647,7.2,12.33,47.84626,-54.09684
2023-11-25 16:59:00+00:00,212.5981,7.2,12.33,47.84626,-54.09684
2023-11-25 17:09:00+00:00,215.7897,7.2,12.33,47.84626,-54.09684
2023-11-25 17:19:00+00:00,216.8281,7.13,12.33,47.84626,-54.09684
2023-11-25 17:29:00+00:00,218.9564,7.1,12.33,47.84626,-54.09684
2023-11-25 17:39:00+00:00,220.4798,7.1,12.33,47.84626,-54.09684
2023-11-25 17:49:00+00:00,220.9331,7.0,12.33,47.84626,-54.09684
2023-11-25 17:59:00+00:00,225.6614,7.0,12.33,47.84626,-54.09684
2023-11-25 18:09:00+00:00,228.5948,7.0,12.33,47.84626,-54.09684
2023-11-25 18:19:00+00:00,224.9881,7.0,12.25,47.84626,-54.09684
2023-11-25 18:29:00+00:00,228.2014,7.0,12.25,47.84626,-54.09684
2023-11-25 18:39:00+00:00,237.6431,7.0,12.25,47.84626,-54.09684
2023-11-25 18:49:00+00:00,242.3614,6.99,12.25,47.84626,-54.09684
2023-11-25 18:59:00+00:00,244.5114,6.9,12.25,47.84626,-54.09684
2023-11-25 19:09:00+00:00,252.3214,6.9,12.25,47.84626,-54.09684
2023-11-25 19:19:00+00:00,261.7381,6.9,12.17,47.84626,-54.09684
2023-11-25 19:29:00+00:00,266.4948,6.9,12.17,47.84626,-54.09684
2023-11-25 19:39:00+00:00,271.9098,6.89,12.17,47.84626,-54.09684
2023-11-25 19:49:00+00:00,283.133,6.8,12.17,47.84626,-54.09684
2023-11-25 19:59:00+00:00,290.6747,6.8,12.17,47.84626,-54.09684
2023-11-25 20:09:00+00:00,294.2314,6.7,12.17,47.84626,-54.09684
2023-11-25 20:19:00+00:00,300.9797,6.69,12.17,47.84626,-54.09684
2023-11-25 20:29:00+00:00,312.2163,6.69,12.17,47.84626,-54.09684
2023-11-25 20:39:00+00:00,317.3363,6.7,12.17,47.84626,-54.09684
2023-11-25 20:49:00+00:00,322.043,6.7,12.17,47.84626,-54.09684
2023-11-25 20:59:00+00:00,329.1013,6.79,12.17,47.84626,-54.09684
2023-11-25 21:09:00+00:00,337.218,6.78,12.17,47.84626,-54.09684
2023-11-25 21:19:01+00:00,339.1464,6.7,12.09,47.84626,-54.09684
2023-11-25 21:29:01+00:00,342.9597,6.7,12.09,47.84626,-54.09684
2023-11-25 21:39:01+00:00,349.8629,6.6,12.09,47.84626,-54.09684
2023-11-25 21:49:01+00:00,352.0963,6.73,12.09,47.84626,-54.09684
2023-11-25 21:59:01+00:00,354.1196,7.17,12.09,47.84626,-54.09684
2023-11-25 22:09:01+00:00,359.2197,7.39,12.09,47.84626,-54.09684
2023-11-25 22:19:00+00:00,362.6513,7.39,12.09,47.84626,-54.09684
2023-11-25 22:29:00+00:00,363.2012,7.18,12.09,47.84626,-54.09684
2023-11-25 22:39:00+00:00,362.0345,6.89,12.09,47.84626,-54.09684
2023-11-25 22:49:00+00:00,363.3396,6.97,12.09,47.84626,-54.09684
2023-11-25 22:59:00+00:00,364.723,6.9,12.09,47.84626,-54.09684
2023-11-25 23:09:00+00:00,361.9329,6.7,12.09,47.84626,-54.09684
2023-11-25 23:19:01+00:00,354.9697,6.6,12.09,47.84626,-54.09684
2023-11-25 23:29:01+00:00,350.0663,6.58,12.09,47.84626,-54.09684
2023-11-25 23:39:01+00:00,344.7147,6.97,12.09,47.84626,-54.09684
2023-11-25 23:49:01+00:00,339.038,7.1,12.09,47.84626,-54.09684
2023-11-25 23:59:01+00:00,331.8229,7.1,12.09,47.84626,-54.09684
